Location: Helsinki
(60.1699°N, 24.9384°E)
Time: 11:12:52
(UTC+02:00)

Transit 2A Rocket - Pass Details

Date: 26 September 2023
Orbit: 593 x 903 km, 66.7° (Epoch: 06 December)

Event Time Altitude Azimuth Distance (km) Brightness Sun altitude
Rises 00:04:57 0° 309° (NW) 3,013 8.9 -29.4°
Reaches altitude 10° 00:07:27 10° 301° (WNW) 2,053 7.8 -29.5°
Enters shadow 00:09:39 24° 283° (WNW) 1,319 6.5 -29.6°
Maximum altitude 00:11:38 36° 236° (SW) 991 - -29.7°
Drops below altitude 10° 00:15:37 10° 170° (S) 1,944 - -29.9°
Sets 00:17:56 0° 161° (SSE) 2,829 - -29.9°
